This demonstration page uses our WeatherBlox Daily Observations layout. Learn more.

Left ArrowRight Arrow

Hourly Observations for April 8, 2017

Temp ( °F °C ) Dew Point ( °F °C ) Humidity (%) Winds ( mph kmh ) Pressure ( in mb ) Visibility ( mi km ) Precip ( " mm )
12:15 am 00:15 Clear 41 5 28 -2 61 61 NW 15 24 29.91 1013 10 16 N/A
12:35 am 00:35 Clear 41 5 28 -2 61 61 NW 10 17 29.94 1014 10 16 N/A
12:55 am 00:55 Clear 41 5 28 -2 61 61 NNW 9 15 29.94 1014 10 16 N/A
1:15 am 01:15 Clear 41 5 28 -2 61 61 NNW 9 15 29.94 1014 10 16 N/A
1:35 am 01:35 Clear 41 5 28 -2 61 61 NW 13 20 29.94 1014 10 16 N/A
1:55 am 01:55 Clear 41 5 28 -2 61 61 NNW 7 11 29.94 1014 10 16 N/A
2:15 am 02:15 Clear 39 4 28 -2 65 65 NW 10 17 29.94 1014 10 16 N/A
2:35 am 02:35 Clear 39 4 27 -3 61 61 NNW 5 7 29.94 1014 10 16 N/A
2:55 am 02:55 Clear 37 3 27 -3 65 65 NNW 8 13 29.94 1014 10 16 N/A
3:15 am 03:15 Clear 39 4 27 -3 61 61 NNW 8 13 29.94 1014 10 16 N/A
3:35 am 03:35 Clear 37 3 27 -3 65 65 NNW 6 9 29.94 1014 10 16 N/A
3:55 am 03:55 Clear 37 3 27 -3 65 65 NNW 7 11 29.94 1014 10 16 N/A
4:15 am 04:15 Clear 37 3 27 -3 65 65 NW 7 11 29.97 1015 10 16 N/A
4:35 am 04:35 Clear 36 2 27 -3 70 70 NW 8 13 29.97 1015 10 16 N/A
4:55 am 04:55 Clear 36 2 27 -3 70 70 WNW 7 11 29.97 1015 10 16 N/A
5:15 am 05:15 Clear 34 1 27 -3 75 75 WNW 6 9 29.97 1015 10 16 N/A
5:35 am 05:35 Clear 36 2 27 -3 70 70 WNW 9 15 29.97 1015 10 16 N/A
5:55 am 05:55 Clear 36 2 25 -4 65 65 WNW 7 11 29.97 1015 10 16 N/A
6:15 am 06:15 Clear 36 2 23 -5 60 60 NW 5 7 30.00 1016 10 16 N/A
6:35 am 06:35 Clear 36 2 23 -5 60 60 WNW 6 9 30.00 1016 10 16 N/A
6:55 am 06:55 Sunny 36 2 23 -5 60 60 NW 6 9 30.00 1016 10 16 N/A
7:15 am 07:15 Sunny 36 2 23 -5 60 60 WNW 9 15 30.00 1016 10 16 N/A
7:35 am 07:35 Sunny 39 4 23 -5 52 52 WNW 8 13 30.03 1017 10 16 N/A
7:55 am 07:55 Sunny 43 6 23 -5 46 46 WNW 12 19 30.03 1017 10 16 N/A
8:15 am 08:15 Sunny 43 6 23 -5 46 46 NW 9 15 30.03 1017 10 16 N/A
8:35 am 08:35 Sunny 45 7 23 -5 42 42 WNW 10 17 30.03 1017 10 16 N/A
8:55 am 08:55 Sunny 46 8 23 -5 40 40 NW 10 17 30.03 1017 10 16 N/A
9:15 am 09:15 Sunny 46 8 23 -5 40 40 NW 13 20 30.03 1017 10 16 N/A
9:35 am 09:35 Sunny 48 9 27 -3 43 43 WNW 13 20 30.06 1018 10 16 N/A
9:55 am 09:55 Sunny 50 10 25 -4 37 37 WNW 17 28 30.03 1017 10 16 N/A
10:15 am 10:15 Sunny 50 10 27 -3 40 40 WNW 17 28 30.03 1017 10 16 N/A
10:35 am 10:35 Sunny 52 11 27 -3 38 38 NW 18 30 30.03 1017 10 16 N/A
10:55 am 10:55 Sunny 54 12 27 -3 35 35 NW 16 26 30.03 1017 10 16 N/A
11:15 am 11:15 Sunny 54 12 25 -4 33 33 NW 14 22 30.03 1017 10 16 N/A
11:35 am 11:35 Sunny 55 13 25 -4 31 31 NW 16 26 30.03 1017 10 16 N/A
11:55 am 11:55 Sunny 55 13 25 -4 31 31 NW 18 30 30.03 1017 10 16 N/A
12:15 pm 12:15 Sunny 55 13 23 -5 28 28 NNW 17 28 30.03 1017 10 16 N/A
12:35 pm 12:35 Sunny 59 15 28 -2 31 31 NW 17 28 30.00 1016 10 16 N/A
12:55 pm 12:55 Sunny 59 15 28 -2 31 31 WNW 17 28 30.00 1016 10 16 N/A
1:15 pm 13:15 Sunny 59 15 27 -3 29 29 NNW 20 31 30.00 1016 10 16 N/A
1:35 pm 13:35 Sunny 59 15 27 -3 29 29 NW 20 31 30.00 1016 10 16 N/A
1:55 pm 13:55 Sunny 61 16 28 -2 29 29 WNW 20 31 30.00 1016 10 16 N/A
2:15 pm 14:15 Sunny 61 16 28 -2 29 29 WNW 20 31 30.00 1016 10 16 N/A
2:35 pm 14:35 Sunny 63 17 28 -2 27 27 WNW 15 24 29.97 1015 10 16 N/A
2:55 pm 14:55 Sunny 63 17 28 -2 27 27 NW 18 30 29.97 1015 10 16 N/A
3:15 pm 15:15 Sunny 63 17 28 -2 27 27 WNW 17 28 29.97 1015 10 16 N/A
3:35 pm 15:35 Sunny 63 17 27 -3 25 25 NW 18 30 29.97 1015 10 16 N/A
3:55 pm 15:55 Sunny 63 17 28 -2 27 27 NW 21 33 29.97 1015 10 16 N/A
4:15 pm 16:15 Sunny 63 17 28 -2 27 27 WNW 22 35 29.97 1015 10 16 N/A
4:35 pm 16:35 Sunny 63 17 28 -2 27 27 WNW 13 20 29.97 1015 10 16 N/A
4:55 pm 16:55 Sunny 63 17 27 -3 25 25 NW 15 24 29.97 1015 10 16 N/A
5:15 pm 17:15 Sunny 63 17 27 -3 25 25 NW 22 35 29.97 1015 10 16 N/A
5:35 pm 17:35 Sunny 63 17 28 -2 27 27 NW 15 24 29.97 1015 10 16 N/A
5:55 pm 17:55 Sunny 63 17 27 -3 25 25 NW 16 26 29.97 1015 10 16 N/A
6:15 pm 18:15 Sunny 63 17 28 -2 27 27 N 14 22 29.97 1015 10 16 N/A
6:35 pm 18:35 Sunny 61 16 28 -2 29 29 NNW 15 24 29.97 1015 10 16 N/A
6:55 pm 18:55 Sunny 61 16 28 -2 29 29 NNW 12 19 29.97 1015 10 16 N/A
7:15 pm 19:15 Sunny 59 15 30 -1 34 34 NW 13 20 29.97 1015 10 16 N/A
7:35 pm 19:35 Sunny 57 14 32 undefined 39 39 NW 9 15 29.97 1015 10 16 N/A
7:55 pm 19:55 Clear 55 13 30 -1 38 38 NW 6 9 30.00 1016 10 16 N/A
8:15 pm 20:15 Clear 55 13 30 -1 38 38 NNW 5 7 30.00 1016 10 16 N/A
8:35 pm 20:35 Clear 54 12 32 undefined 44 44 WNW 5 7 30.00 1016 10 16 N/A
8:55 pm 20:55 Clear 54 12 30 -1 41 41 NW 7 11 30.03 1017 10 16 N/A
9:15 pm 21:15 Clear 54 12 30 -1 41 41 N N/A 30.03 1017 10 16 N/A
9:35 pm 21:35 Clear 50 10 32 undefined 50 50 N N/A 30.09 1019 10 16 N/A
9:55 pm 21:55 Clear 46 8 34 1 62 62 NW 10 17 30.09 1019 10 16 N/A
10:15 pm 22:15 Clear 52 11 30 -1 44 44 NW 3 6 30.06 1018 10 16 N/A
10:35 pm 22:35 Clear 46 8 34 1 62 62 NW 5 7 30.09 1019 10 16 N/A
10:55 pm 22:55 Clear 48 9 32 undefined 54 54 N N/A 30.09 1019 10 16 N/A
11:15 pm 23:15 Clear 52 11 28 -2 41 41 NNE 3 6 30.06 1018 10 16 N/A
11:35 pm 23:35 Clear 52 11 30 -1 44 44 N 3 6 30.06 1018 10 16 N/A
11:55 pm 23:55 Clear 46 8 30 -1 53 53 N 5 7 30.09 1019 10 16 N/A

Powered by AerisWeather